TimeMST,TemperatureF,Dew PointF,Humidity,Sea Level PressureIn,VisibilityMPH,Wind Direction,Wind SpeedMPH,Gust SpeedMPH,PrecipitationIn,Events,Conditions,WindDirDegrees,DateUTC
12:15 AM,1.4,-5.8,72,30.05,8.0,NW,18.4,-,N/A,,Mostly Cloudy,320,2013-01-12 07:15:00
12:35 AM,1.4,-4.0,78,30.05,5.0,NW,20.7,-,N/A,,Partly Cloudy,320,2013-01-12 07:35:00
12:55 AM,1.4,-4.0,78,30.05,6.0,NW,19.6,-,N/A,,Clear,320,2013-01-12 07:55:00
1:15 AM,1.4,-2.2,85,30.06,5.0,NW,19.6,24.2,N/A,,Clear,320,2013-01-12 08:15:00
1:35 AM,1.4,-2.2,85,30.06,9.0,NW,19.6,-,N/A,,Clear,320,2013-01-12 08:35:00
1:55 AM,1.4,-4.0,78,30.07,6.0,NW,19.6,-,N/A,,Scattered Clouds,320,2013-01-12 08:55:00
2:15 AM,1.4,-2.2,85,30.07,9.0,NW,19.6,-,N/A,,Mostly Cloudy,320,2013-01-12 09:15:00
2:35 AM,3.2,-2.2,78,30.08,10.0,NW,17.3,23.0,N/A,,Overcast,320,2013-01-12 09:35:00
2:55 AM,1.4,-2.2,85,30.09,10.0,NW,16.1,21.9,N/A,,Overcast,320,2013-01-12 09:55:00
3:15 AM,1.4,-2.2,85,30.10,10.0,NW,16.1,21.9,N/A,,Overcast,320,2013-01-12 10:15:00
3:35 AM,1.4,-4.0,78,30.10,10.0,NNW,15.0,19.6,N/A,,Overcast,340,2013-01-12 10:35:00
3:55 AM,1.4,-5.8,72,30.10,10.0,NNW,16.1,-,N/A,,Overcast,330,2013-01-12 10:55:00
4:15 AM,-0.4,-7.6,72,30.10,10.0,NW,18.4,-,N/A,,Overcast,320,2013-01-12 11:15:00
4:35 AM,-0.4,-7.6,72,30.10,10.0,NW,15.0,-,N/A,,Mostly Cloudy,320,2013-01-12 11:35:00
4:55 AM,-0.4,-7.6,72,30.12,10.0,North,6.9,-,N/A,,Partly Cloudy,10,2013-01-12 11:55:00
5:15 AM,-2.2,-7.6,78,30.13,10.0,NW,8.1,-,N/A,,Clear,320,2013-01-12 12:15:00
5:35 AM,-2.2,-9.4,71,30.13,10.0,NNW,10.4,-,N/A,,Clear,340,2013-01-12 12:35:00
5:55 AM,-2.2,-7.6,78,30.14,10.0,WNW,5.8,-,N/A,,Clear,300,2013-01-12 12:55:00
6:15 AM,-4.0,-11.2,71,30.14,10.0,NW,9.2,-,N/A,,Mostly Cloudy,310,2013-01-12 13:15:00
6:35 AM,-4.0,-9.4,78,30.15,10.0,NW,9.2,-,N/A,,Mostly Cloudy,320,2013-01-12 13:35:00
6:55 AM,-4.0,-9.4,78,30.16,10.0,NW,9.2,-,N/A,,Partly Cloudy,310,2013-01-12 13:55:00
7:15 AM,-2.2,-9.4,71,30.15,10.0,NW,13.8,-,N/A,,Scattered Clouds,310,2013-01-12 14:15:00
7:35 AM,-2.2,-7.6,78,30.16,10.0,WNW,13.8,-,N/A,,Partly Cloudy,300,2013-01-12 14:35:00
7:55 AM,-2.2,-11.2,66,30.17,10.0,WNW,15.0,-,N/A,,Clear,300,2013-01-12 14:55:00
8:35 AM,-2.2,-9999,N/A,30.18,10.0,WNW,15.0,-,N/A,,Partly Cloudy,290,2013-01-12 15:35:00
8:55 AM,-2.2,-7.6,78,30.19,10.0,WNW,13.8,-,N/A,,Clear,290,2013-01-12 15:55:00
9:35 AM,-0.4,-5.8,78,30.20,10.0,WNW,10.4,-,N/A,,Scattered Clouds,290,2013-01-12 16:35:00
9:55 AM,1.4,-5.8,72,30.20,10.0,WNW,8.1,-,N/A,,Overcast,290,2013-01-12 16:55:00
10:15 AM,1.4,-5.8,72,30.21,10.0,West,5.8,-,N/A,,Overcast,270,2013-01-12 17:15:00
10:55 AM,3.2,-4.0,72,30.20,10.0,West,9.2,-,N/A,,Mostly Cloudy,270,2013-01-12 17:55:00
11:15 AM,3.2,-5.8,66,30.19,10.0,West,9.2,-,N/A,,Partly Cloudy,270,2013-01-12 18:15:00
11:55 AM,3.2,-4.0,72,30.18,10.0,WNW,6.9,-,N/A,,Clear,300,2013-01-12 18:55:00
12:35 PM,5.0,-2.2,72,30.18,10.0,WNW,8.1,-,N/A,,Clear,290,2013-01-12 19:35:00
12:55 PM,5.0,-2.2,72,30.18,10.0,West,8.1,-,N/A,,Clear,280,2013-01-12 19:55:00
1:16 PM,6.8,-2.2,67,30.18,10.0,West,5.8,-,N/A,,Clear,270,2013-01-12 20:16:00
1:35 PM,6.8,-4.0,61,30.19,10.0,West,4.6,-,N/A,,Clear,260,2013-01-12 20:35:00
1:55 PM,6.8,-2.2,67,30.19,10.0,WSW,4.6,-,N/A,,Clear,250,2013-01-12 20:55:00
2:15 PM,8.6,-2.2,62,30.19,10.0,South,4.6,-,N/A,,Clear,190,2013-01-12 21:15:00
2:35 PM,6.8,-2.2,67,30.20,10.0,West,4.6,-,N/A,,Clear,270,2013-01-12 21:35:00
2:55 PM,6.8,-2.2,67,30.20,10.0,WSW,4.6,-,N/A,,Clear,240,2013-01-12 21:55:00
3:15 PM,6.8,-2.2,67,30.20,10.0,SW,5.8,-,N/A,,Clear,220,2013-01-12 22:15:00
3:35 PM,6.8,-2.2,67,30.20,10.0,SSW,5.8,-,N/A,,Clear,200,2013-01-12 22:35:00
3:55 PM,5.0,-4.0,66,30.20,10.0,SW,5.8,-,N/A,,Clear,220,2013-01-12 22:55:00
4:15 PM,3.2,-2.2,78,30.19,10.0,SW,3.5,-,N/A,,Clear,230,2013-01-12 23:15:00
4:35 PM,1.4,-7.6,66,30.19,10.0,Calm,Calm,-,N/A,,Clear,0,2013-01-12 23:35:00
4:55 PM,3.2,-0.4,85,30.19,10.0,Calm,Calm,-,N/A,,Clear,0,2013-01-12 23:55:00
5:15 PM,1.4,-9.4,61,30.20,10.0,Calm,Calm,-,N/A,,Clear,0,2013-01-13 00:15:00
5:35 PM,-0.4,-5.8,78,30.19,10.0,Calm,Calm,-,N/A,,Clear,0,2013-01-13 00:35:00
6:35 PM,-4.0,-7.6,85,30.19,10.0,Calm,Calm,-,N/A,,Clear,0,2013-01-13 01:35:00
6:55 PM,-2.2,-2.2,100,30.18,10.0,SW,4.6,-,N/A,,Clear,230,2013-01-13 01:55:00
7:15 PM,-2.2,-16.6,50,30.18,10.0,Calm,Calm,-,N/A,,Clear,0,2013-01-13 02:15:00
7:35 PM,-5.8,-5.8,100,30.18,10.0,SSW,3.5,-,N/A,,Clear,200,2013-01-13 02:35:00
7:55 PM,-5.8,-11.2,77,30.18,10.0,SW,5.8,-,N/A,,Clear,220,2013-01-13 02:55:00
8:15 PM,-5.8,-11.2,77,30.17,10.0,SSW,8.1,-,N/A,,Clear,210,2013-01-13 03:15:00
8:55 PM,-7.6,-18.4,59,30.17,10.0,SSW,6.9,-,N/A,,Mostly Cloudy,200,2013-01-13 03:55:00
9:15 PM,-7.6,-7.6,100,30.17,10.0,South,6.9,-,N/A,,Partly Cloudy,180,2013-01-13 04:15:00
9:35 PM,-7.6,-18.4,59,30.16,10.0,SSW,5.8,-,N/A,,Clear,210,2013-01-13 04:35:00
9:55 PM,-7.6,-7.6,100,30.17,10.0,SSW,3.5,-,N/A,,Clear,200,2013-01-13 04:55:00
10:15 PM,-7.6,-13.0,77,30.17,10.0,South,3.5,-,N/A,,Clear,180,2013-01-13 05:15:00
10:35 PM,-7.6,-11.2,84,30.17,10.0,Calm,Calm,-,N/A,,Clear,0,2013-01-13 05:35:00
10:55 PM,-9.4,-14.8,77,30.17,10.0,Calm,Calm,-,N/A,,Clear,0,2013-01-13 05:55:00
11:15 PM,-9.4,-11.2,92,30.17,10.0,South,6.9,-,N/A,,Clear,190,2013-01-13 06:15:00
11:35 PM,-9.4,-16.6,71,30.16,10.0,SSW,8.1,-,N/A,,Clear,210,2013-01-13 06:35:00
11:55 PM,-7.6,-7.6,100,30.16,10.0,SSW,5.8,-,N/A,,Clear,210,2013-01-13 06:55:00